User: anonymous   Login
Location: Vancouver
(49.2500°N, 123.1330°W)
Time: 08:39:33
(UTC-07:00)
Language:

Cosmos 1864 Rocket - Orbit

View from above orbital plane
View from above orbital plane
View from above satellite
View from above satellite

Ground track
Ground track

The orbit data is extracted from the following two-line orbital elements,

1 18161U 87057B   15186.31877012  .00000131  00000-0  11659-3 0  9994
2 18161 082.9338 242.3869 0032119 146.4369 261.5029 13.76894085386121
Epoch (UTC): 05 July 2015 07:39:01
Eccentricity: 0.0032119
inclination: 82.9338°
perigee height: 951 km
apogee height: 998 km
right ascension of ascending node: 242.3869°
argument of perigee: 146.4369°
revolutions per day: 13.76894085
mean anomaly at epoch: 261.5029°
orbit number at epoch: 38612

The dashed part of the orbit path shows where the satellite is in the earth's shadow,  

DLR